Preview of NWS' New Version of Forecast
This preview is not operational and should not be used for support decisions.

Regional Weather Roundup (RWR)

Issued by National Weather Service (NWS)

                            
000
ASCA42 TJSJ 180310
RWRPR 
PUERTO RICO/U.S. VIRGIN ISLANDS HOURLY WEATHER ROUNDUP
NATIONAL WEATHER SERVICE SAN JUAN PR
1100 PM AST SUN FEB 17 2019

PRZ001>002-007>008-010-180400-
PUERTO RICO
  
CITY           SKY/WX    TMP DP  RH WIND       PRES   REMARKS
SAN JUAN LMM   PTCLDY    75  72  88 E3        30.12R                  
AGUADILLA      CLEAR     73  64  73 CALM      30.13S                  
CEIBA          PTCLDY    73  72  94 E7        30.14R                  
$$

VIZ001>002-180400-
U.S. VIRGIN ISLANDS
  
CITY           SKY/WX    TMP DP  RH WIND       PRES   REMARKS
CHARLOTTE AMA  CLEAR     77  70  78 E9        30.12R                  
CHRISTIANSTED  CLEAR     75  72  88 NE6       30.12S                  
$$

HOURLY WEATHER ROUNDUP FOR THE NEWS MEDIA
  
CITY           SKY/WX    TMP DP  RH WIND       PRES   REMARKS
ORLANDO        FAIR      76  63  64 SW8       30.01R                  
NEW YORK       LGT RAIN  35  30  82 SE5       30.04R WCI  31          
NEWARK         LGTSLEET  35  29  78 S5        29.99S WCI  31          
CHICAGO        LGT SNOW  25  24  96 N10       29.89R FOG     WCI  15  
HARTFORD       CLOUDY    31  23  72 SW3       30.04F                  
BOSTON         CLOUDY    32  21  64 S8        30.04F WCI  25          
DALLAS         CLOUDY    47  29  49 N7        30.09R                  
PHILADELPHIA   LGT RAIN  34  31  88 NE3       30.00  FOG              
LOS ANGELES    PTCLDY    53  38  56 W30G38    29.95R                  
WASHINGTON DC  RAIN      34  32  92 SE9       29.91F FOG     WCI  27